Regional Weather Roundup
Issued by NWS

Home | Current Version | Previous Version | Text Only | Print | Product List | Glossary On
Versions: 1 2 3 4 5 6 7 8 9 10 11 12 13 14 15 16 17 18 19 20 21 22 23 24 25 26 27 28 29 30 31 32 33 34 35 36 37 38 39 40 41 42 43 44 45 46 47 48 49 50
000
ASUS42 KFFC 061810
RWRGA
WEATHER ROUNDUP FOR GEORGIA
NATIONAL WEATHER SERVICE PEACHTREE CITY GA
100 PM EST TUE DEC 06 2016

NOTE: "FAIR" INDICATES FEW OR NO CLOUDS BELOW 12,000 FEET WITH NO
SIGNIFICANT WEATHER AND/OR OBSTRUCTIONS TO VISIBILITY.

* = USE WITH CAUTION. THE STATIONS MARKED WITH AN ASTERISK MAY NOT
REPORT WEATHER SUCH AS PRECIPITATION, FOG, OR THUNDER AND ARE NOT
QUALITY CONTROLLED BY NWS.

THE REMARK "TC" DENOTES TEMPERATURE READING IN DEGREES CELSIUS.

GAZ001>058-061900-
NORTH GEORGIA

CITY           SKY/WX    TMP DP  RH WIND       PRES   REMARKS
ATLANTA        CLOUDY    55  54  96 CALM      29.75R
6HR MIN TEMP:  52; 6HR MAX TEMP:  55; 6HR PCP:  0.08;

ATHENS         CLOUDY    52  51  97 NE6       29.75S
6HR MIN TEMP:  50; 6HR MAX TEMP:  52; 6HR PCP:  0.06;

CHAMBLEE       CLOUDY    52  50  93 SE3       29.76R FOG
6HR MIN TEMP:  50; 6HR MAX TEMP:  52; 6HR PCP:  0.10;

PEACHTREE CITY CLOUDY    64  57  78 SW7G17    29.75S
6HR MIN TEMP:  53; 6HR MAX TEMP:  64; 6HR PCP:  0.06;

ROME           CLOUDY    57  54  89 S5        29.74R
6HR MIN TEMP:  53; 6HR MAX TEMP:  57; 6HR PCP:  0.17;

WEST ATLANTA   LGT RAIN  54  52  93 CALM      29.75S FOG
                                      6HR PCP:  0.18;

GAINESVILLE    CLOUDY    48  48 100 NE7G18    29.77F
6HR MIN TEMP:  47; 6HR MAX TEMP:  49; 6HR PCP:  0.21;

CARTERSVILLE   CLOUDY    54  52  93 SE7       29.76R
6HR MIN TEMP:  52; 6HR MAX TEMP:  54; 6HR PCP:  0.28;



CITY           SKY/WX    TMP DP  RH WIND       PRES   REMARKS
DALTON*        CLOUDY    54  54 100 S3        29.74R
LAWRENCEVILLE* CLOUDY    52  48  87 E7        29.74F FOG
MARIETTA       DRIZZLE   53  51  94 E2        29.75R FOG
KENNESAW*      CLOUDY    52  48  87 CALM      29.77F
CANTON*        CLOUDY    50  46  87 E6        29.76F
$$

GAZ059>098-102>109-061900-
CENTRAL GEORGIA

CITY           SKY/WX    TMP DP  RH WIND       PRES   REMARKS
AUGUSTA-BUSH   LGT RAIN  60  58  92 CALM      29.70F FOG
6HR MIN TEMP:  57; 6HR MAX TEMP:  61; 6HR PCP:  0.10;

AUGUSTA-DANIEL LGT RAIN  58  55  90 NW5       29.71S VSB 1/2
6HR MIN TEMP:  55; 6HR MAX TEMP:  59; 6HR PCP:  0.03;

COLUMBUS       PTSUNNY   66  56  70 NW17      29.76S
6HR MIN TEMP:  55; 6HR MAX TEMP:  68; 6HR PCP:  0.12;

MACON          MOSUNNY   73  58  59 W14G25    29.72S
6HR MIN TEMP:  56; 6HR MAX TEMP:  73; 6HR PCP:  0.03;

ROBINS AFB     MOSUNNY   73  61  67 W15       29.72S


CITY           SKY/WX    TMP DP  RH WIND       PRES   REMARKS
LAGRANGE*      CLOUDY    66  60  82 NW15      29.76R
SYLVANIA*      PTSUNNY  N/A N/A N/A W9        29.70F
MILLEDGEVILLE* CLOUDY    61  61 100 W5        29.73S
$$

GAZ099>101-110>166-061900-
SOUTH GEORGIA

CITY           SKY/WX    TMP DP  RH WIND       PRES   REMARKS
SAVANNAH       PTSUNNY   75  69  81 SW10      29.70F
6HR MIN TEMP:  60; 6HR MAX TEMP:  75; 6HR PCP:  0.79;

VALDOSTA       SUNNY     80  59  48 W12G22    29.76F
6HR MIN TEMP:  70; 6HR MAX TEMP:  80;

ALMA           MOSUNNY   79  67  66 SW16G24   29.72F
6HR MIN TEMP:  60; 6HR MAX TEMP:  79; 6HR PCP:  0.49;

ST SIMONS      MOSUNNY   76  70  82 SW12      29.74F
6HR MIN TEMP:  67; 6HR MAX TEMP:  76; 6HR PCP:  0.23;

FT STEWART     MOSUNNY   77  70  78 SW15      29.68F
ALBANY         SUNNY     78  55  44 W18G24    29.77S
HUNTER AFB     PTSUNNY   75  75 100 S9        29.68F
MOODY AFB      SUNNY     81  54  38 W18G30    29.74F
BRUNSWICK      MOSUNNY   79  73  83 SW13G20   29.74F


CITY           SKY/WX    TMP DP  RH WIND       PRES   REMARKS
BAINBRIDGE*    SUNNY     77  54  44 W15       29.80S
MOULTRIE*      SUNNY     77  48  36 W21G31    29.77F
VIDALIA*       PTSUNNY   81  70  69 W17G23    29.71S
WAYCROSS*      PTSUNNY   84  69  61 W20       29.73F
DOUGLAS*       SUNNY     79  55  44 W16G33    29.74F
$$




USA.gov is the U.S. government's official web portal to all federal, state and local government web resources and services.